TimeCST,TemperatureF,Dew PointF,Humidity,Sea Level PressureIn,VisibilityMPH,Wind Direction,Wind SpeedMPH,Gust SpeedMPH,PrecipitationIn,Events,Conditions,WindDirDegrees,DateUTC
12:15 AM,21.2,15.8,80,29.88,10.0,SW,11.5,-,N/A,,Clear,220,2013-01-16 06:15:00
12:35 AM,19.4,15.8,86,29.87,10.0,SSW,12.7,-,N/A,,Clear,210,2013-01-16 06:35:00
12:55 AM,21.2,14.0,74,29.86,10.0,SW,13.8,-,N/A,,Clear,220,2013-01-16 06:55:00
1:15 AM,21.2,14.0,74,29.85,10.0,SW,12.7,-,N/A,,Mostly Cloudy,220,2013-01-16 07:15:00
1:35 AM,21.2,15.8,80,29.84,10.0,SSW,12.7,-,N/A,,Overcast,210,2013-01-16 07:35:00
1:55 AM,23.0,15.8,74,29.83,10.0,SW,15.0,-,N/A,,Overcast,220,2013-01-16 07:55:00
2:15 AM,23.0,15.8,74,29.82,10.0,SW,12.7,-,N/A,,Overcast,220,2013-01-16 08:15:00
2:35 AM,24.8,15.8,69,29.82,10.0,SW,12.7,-,N/A,,Overcast,220,2013-01-16 08:35:00
2:55 AM,24.8,15.8,69,29.82,10.0,SW,12.7,-,N/A,,Overcast,220,2013-01-16 08:55:00
3:15 AM,24.8,17.6,74,29.82,10.0,SW,10.4,-,N/A,,Overcast,220,2013-01-16 09:15:00
3:35 AM,26.6,17.6,69,29.81,10.0,SW,13.8,-,N/A,,Overcast,220,2013-01-16 09:35:00
3:55 AM,24.8,17.6,74,29.79,10.0,SW,11.5,-,N/A,,Overcast,220,2013-01-16 09:55:00
4:15 AM,26.6,19.4,74,29.79,10.0,SW,12.7,-,N/A,,Overcast,220,2013-01-16 10:15:00
4:35 AM,26.6,19.4,74,29.79,10.0,SW,8.1,-,N/A,,Overcast,220,2013-01-16 10:35:00
4:55 AM,26.6,19.4,74,29.79,10.0,SW,10.4,-,N/A,,Overcast,220,2013-01-16 10:55:00
5:15 AM,26.6,21.2,80,29.78,10.0,SW,10.4,-,N/A,,Overcast,220,2013-01-16 11:15:00
5:35 AM,28.4,23.0,80,29.78,10.0,SW,11.5,-,N/A,,Overcast,220,2013-01-16 11:35:00
5:55 AM,28.4,23.0,80,29.79,10.0,SW,9.2,-,N/A,,Overcast,220,2013-01-16 11:55:00
6:35 AM,26.6,21.2,80,29.79,10.0,SW,5.8,-,N/A,,Scattered Clouds,220,2013-01-16 12:35:00
6:55 AM,26.6,23.0,86,29.80,10.0,WSW,5.8,-,N/A,,Scattered Clouds,240,2013-01-16 12:55:00
7:15 AM,26.6,24.8,93,29.81,10.0,SW,8.1,-,N/A,,Scattered Clouds,230,2013-01-16 13:15:00
7:35 AM,26.6,24.8,93,29.82,10.0,SW,5.8,-,N/A,,Clear,230,2013-01-16 13:35:00
7:55 AM,26.6,23.0,86,29.83,10.0,SW,4.6,-,N/A,,Clear,220,2013-01-16 13:55:00
8:15 AM,26.6,24.8,93,29.83,10.0,SW,5.8,-,N/A,,Clear,220,2013-01-16 14:15:00
8:35 AM,26.6,24.8,93,29.84,10.0,WSW,3.5,-,N/A,,Clear,240,2013-01-16 14:35:00
8:55 AM,30.2,26.6,86,29.85,10.0,West,9.2,-,N/A,,Clear,270,2013-01-16 14:55:00
9:15 AM,33.8,26.6,75,29.85,10.0,West,10.4,-,N/A,,Clear,270,2013-01-16 15:15:00
9:35 AM,35.6,28.4,75,29.86,10.0,West,11.5,-,N/A,,Clear,280,2013-01-16 15:35:00
9:55 AM,37.4,30.2,75,29.86,10.0,WNW,15.0,-,N/A,,Mostly Cloudy,290,2013-01-16 15:55:00
10:15 AM,37.4,30.2,75,29.86,10.0,West,13.8,-,N/A,,Overcast,280,2013-01-16 16:15:00
10:35 AM,39.2,32.0,75,29.86,10.0,West,16.1,-,N/A,,Scattered Clouds,280,2013-01-16 16:35:00
10:55 AM,39.2,30.2,70,29.87,10.0,WNW,18.4,-,N/A,,Clear,290,2013-01-16 16:55:00
11:15 AM,42.8,30.2,61,29.87,10.0,West,17.3,-,N/A,,Clear,280,2013-01-16 17:15:00
11:35 AM,42.8,30.2,61,29.87,10.0,West,12.7,-,N/A,,Mostly Cloudy,280,2013-01-16 17:35:00
11:55 AM,44.6,32.0,61,29.86,10.0,West,15.0,-,N/A,,Mostly Cloudy,280,2013-01-16 17:55:00
12:15 PM,42.8,32.0,66,29.85,10.0,WNW,15.0,21.9,N/A,,Mostly Cloudy,290,2013-01-16 18:15:00
12:35 PM,44.6,32.0,61,29.85,10.0,West,17.3,-,N/A,,Scattered Clouds,280,2013-01-16 18:35:00
12:55 PM,44.6,30.2,57,29.85,10.0,WNW,18.4,-,N/A,,Clear,290,2013-01-16 18:55:00
1:15 PM,44.6,30.2,57,29.85,10.0,West,21.9,26.5,N/A,,Clear,280,2013-01-16 19:15:00
1:35 PM,46.4,30.2,53,29.85,10.0,WNW,21.9,26.5,N/A,,Clear,290,2013-01-16 19:35:00
1:55 PM,46.4,30.2,53,29.85,10.0,WNW,19.6,26.5,N/A,,Clear,290,2013-01-16 19:55:00
2:15 PM,46.4,30.2,53,29.87,10.0,NW,20.7,28.8,N/A,,Clear,310,2013-01-16 20:15:00
2:35 PM,44.6,32.0,61,29.88,10.0,WNW,19.6,29.9,N/A,,Clear,300,2013-01-16 20:35:00
2:55 PM,44.6,30.2,57,29.89,10.0,WNW,21.9,31.1,N/A,,Clear,300,2013-01-16 20:55:00
3:15 PM,44.6,30.2,57,29.90,10.0,NW,23.0,29.9,N/A,,Clear,310,2013-01-16 21:15:00
3:35 PM,44.6,30.2,57,29.92,10.0,NW,19.6,26.5,N/A,,Clear,320,2013-01-16 21:35:00
3:55 PM,42.8,30.2,61,29.94,10.0,NNW,15.0,24.2,N/A,,Clear,330,2013-01-16 21:55:00
4:15 PM,42.8,30.2,61,29.95,10.0,NNW,15.0,23.0,N/A,,Scattered Clouds,330,2013-01-16 22:15:00
4:35 PM,42.8,30.2,61,29.97,10.0,NNW,18.4,28.8,N/A,,Scattered Clouds,340,2013-01-16 22:35:00
4:55 PM,39.2,30.2,70,29.99,10.0,NNW,16.1,23.0,N/A,,Mostly Cloudy,340,2013-01-16 22:55:00
5:15 PM,39.2,32.0,75,30.00,10.0,NNW,15.0,19.6,N/A,,Overcast,340,2013-01-16 23:15:00
5:35 PM,35.6,28.4,75,30.04,10.0,North,12.7,18.4,N/A,,Overcast,10,2013-01-16 23:35:00
5:55 PM,33.8,26.6,75,30.05,10.0,NNE,10.4,-,N/A,,Overcast,20,2013-01-16 23:55:00
6:15 PM,32.0,26.6,80,30.07,10.0,North,10.4,-,N/A,,Overcast,10,2013-01-17 00:15:00
6:35 PM,30.2,26.6,86,30.08,10.0,North,10.4,-,N/A,,Mostly Cloudy,360,2013-01-17 00:35:00
6:55 PM,30.2,24.8,80,30.09,10.0,North,10.4,-,N/A,,Mostly Cloudy,10,2013-01-17 00:55:00
7:15 PM,30.2,24.8,80,30.11,10.0,North,10.4,-,N/A,,Mostly Cloudy,360,2013-01-17 01:15:00
7:35 PM,28.4,24.8,86,30.12,10.0,North,17.3,21.9,N/A,,Overcast,10,2013-01-17 01:35:00
7:55 PM,26.6,21.2,80,30.14,10.0,North,11.5,17.3,N/A,,Scattered Clouds,360,2013-01-17 01:55:00
8:15 PM,26.6,19.4,74,30.15,10.0,North,9.2,-,N/A,,Clear,10,2013-01-17 02:15:00
8:35 PM,24.8,17.6,74,30.16,10.0,North,11.5,18.4,N/A,,Clear,10,2013-01-17 02:35:00
8:55 PM,24.8,15.8,69,30.19,10.0,North,9.2,18.4,N/A,,Clear,10,2013-01-17 02:55:00
9:15 PM,23.0,10.4,59,30.19,10.0,North,11.5,17.3,N/A,,Clear,10,2013-01-17 03:15:00
9:35 PM,21.2,6.8,54,30.20,10.0,NNE,11.5,-,N/A,,Clear,20,2013-01-17 03:35:00
9:55 PM,21.2,8.6,58,30.20,10.0,NNE,9.2,-,N/A,,Clear,20,2013-01-17 03:55:00
10:15 PM,19.4,8.6,63,30.21,10.0,North,5.8,-,N/A,,Clear,10,2013-01-17 04:15:00
10:35 PM,19.4,8.6,63,30.23,10.0,NNW,4.6,-,N/A,,Clear,330,2013-01-17 04:35:00
10:55 PM,17.6,8.6,68,30.24,10.0,NW,4.6,-,N/A,,Clear,320,2013-01-17 04:55:00
11:15 PM,17.6,6.8,63,30.24,10.0,Calm,Calm,-,N/A,,Clear,0,2013-01-17 05:15:00
11:35 PM,17.6,3.2,53,30.25,10.0,NNW,5.8,-,N/A,,Clear,330,2013-01-17 05:35:00
11:55 PM,17.6,3.2,53,30.25,10.0,NNW,4.6,-,N/A,,Clear,340,2013-01-17 05:55:00